Regional Weather Roundup
Issued by NWS

Home | Current Version | Previous Version | Text Only | Print | Product List | Glossary Off
Versions: 1 2 3 4 5 6 7 8 9 10 11 12 13 14 15 16 17 18 19 20 21 22 23 24 25 26 27 28 29 30 31 32 33 34 35 36 37 38 39 40 41 42 43 44 45 46 47 48

000
ASUS45 KCYS 041310
RWRWY

WYOMING REGIONAL WEATHER ROUNDUP
NATIONAL WEATHER SERVICE CHEYENNE WY
700 AM MDT FRI SEP 04 2015

NOTE:  "FAIR" INDICATES FEW OR NO CLOUDS BELOW 12,000 FEET
WITH NO SIGNIFICANT WEATHER AND/OR OBSTRUCTIONS TO VISIBILITY.

WYZ001-041400-
YELLOWSTONE NATIONAL PARK

CITY           SKY/WX    TMP DP  RH WIND       PRES   REMARKS
LK YELLOWSTONE   N/A     38  36  92 CALM      30.03S
W YELLOWSTONE  NOT AVBL

$$
WYZ002>013-054>058-071-098>099-041400-
NORTHERN WYOMING

CITY           SKY/WX    TMP DP  RH WIND       PRES   REMARKS
JACKSON        FAIR      43  43 100 N5        29.97R
CODY           FAIR      48  45  87 NE8       29.96R
GREYBULL       FAIR      54  45  71 NW14      29.90R
WORLAND        FAIR      51  42  71 E3        29.91R
SHERIDAN       FAIR      54  42  64 NW3       29.93R
BUFFALO        FAIR      55  44  66 NW9       29.96R
GILLETTE       FAIR      55  43  63 W8        29.91R
HULETT         FAIR      61  45  55 CALM      29.90R
NEWCASTLE      FAIR      61  41  48 N9        29.89R

$$
WYZ014>020-022>026-101>103-041400-
CENTRAL WYOMING

CITY           SKY/WX    TMP DP  RH WIND       PRES   REMARKS
BIG PINEY      FAIR      40  33  76 E3        30.05R
PINEDALE       FAIR      41  36  81 CALM      30.06R
DUBOIS         FAIR      43  34  70 W8        30.04R
LANDER         FAIR      54  35  48 N7        29.93R
RIVERTON       FAIR      53  39  59 CALM      29.94R
CASPER         FAIR      60  42  51 W10       29.95R
DOUGLAS        FAIR      50  47  89 CALM      29.95R

$$
WYZ021-027>030-104>119-041400-
SOUTHERN WYOMING

CITY           SKY/WX    TMP DP  RH WIND       PRES   REMARKS
EVANSTON       FAIR      56  30  37 SW10      30.03R
KEMMERER       FAIR      50  30  46 CALM      30.05R
FORT BRIDGER   SUNNY     52  32  46 S13       30.08R
ROCK SPRINGS   FAIR      58  36  43 CALM      30.04R
DIXON          FAIR      50  43  77 CALM      30.11R
RAWLINS        FAIR      57  40  52 S3        30.07R
SARATOGA       FAIR      52  43  71 SE15      30.12R
LARAMIE        FAIR      48  32  53 S8        30.13R
CHEYENNE       FAIR      52  43  71 SW7       30.04R
TORRINGTON     FAIR      53  49  86 CALM      29.89R
PINE BLUFFS    FAIR      46  43  87 S8        29.99R

$$



USA.gov is the U.S. government's official web portal to all federal, state and local government web resources and services.